[[{"header":{"parameterUnit":"m.s-1","parameterCategory":2,"la1":30.2992,"la2":30.254,"lo1":-89.0895,"lo2":-89.0443,"dy":0.0025,"dx":0.0025,"nx":19,"ny":19,"refTime":"2026-03-25T03:00:00:Z","depth":"0","parameterNumber":2,"parameterNumberName":"U-component_of_CURRENTS"},"data":[0,0,0,-0.1646,-0.1644,-0.1582,-0.1582,-0.145,-0.1448,0,0,0,0,0,0,0,0,0,0,0,-0.1653,-0.1652,-0.1646,-0.1644,-0.1582,-0.1582,-0.145,-0.1448,0,0,0,0,0,0,0,0,0,0,0,-0.1654,-0.1653,-0.1651,-0.1643,-0.1582,-0.1581,-0.1451,-0.1513,0,0,0,0,0,0,0,0,0,0,-0.1581,-0.1588,-0.1653,-0.1651,-0.1643,-0.1582,-0.1581,-0.1517,-0.1509,-0.146,0,-0.1429,0,-0.1434,-0.1437,-0.1437,0,0,0,-0.1655,-0.1595,-0.158,-0.1651,-0.1642,-0.1582,-0.1613,-0.1513,-0.1504,-0.1449,-0.1428,-0.1423,-0.1432,-0.1436,-0.1436,-0.1241,-0.124,0,0,-0.1658,-0.1643,-0.1586,-0.1574,-0.1596,-0.1615,-0.1611,-0.1508,-0.1483,-0.1427,-0.1421,-0.1429,-0.1435,-0.1434,-0.1242,-0.124,0,0,0,-0.1661,-0.1645,-0.1634,-0.1578,-0.157,-0.1613,-0.1608,-0.1488,-0.1484,-0.142,-0.1428,-0.1434,-0.1432,-0.1243,-0.1241,-0.1287,0,0,0,-0.1663,-0.1646,-0.1635,-0.1626,-0.1572,-0.1534,-0.159,-0.1491,-0.1481,-0.1429,-0.1434,-0.1431,-0.1244,-0.1242,-0.1288,-0.1194,0,0,0,-0.1662,-0.1646,-0.1631,-0.1625,-0.1596,-0.1537,-0.1528,-0.149,-0.1484,-0.1437,-0.143,-0.1244,-0.1242,-0.1289,-0.1199,-0.0872,0,0,0,-0.1662,-0.1575,-0.163,-0.1535,-0.1596,-0.1512,-0.1529,-0.1449,-0.1398,-0.1434,-0.1243,-0.1241,-0.129,-0.1201,-0.088,-0.059,-0.0531,0,0,-0.1549,-0.1561,-0.1507,-0.1554,-0.1478,-0.1523,-0.1441,-0.1382,-0.1354,-0.1278,-0.1273,-0.1288,-0.1199,-0.0874,-0.0466,-0.041,0,0,0,-0.147,-0.1448,-0.1424,-0.1402,-0.1371,-0.1374,-0.1342,-0.1331,-0.1281,-0.1314,-0.1231,-0.1168,-0.0963,-0.0804,-0.076,-0.0709,-0.1231,-0.1232,-0.1232,-0.1336,-0.1351,-0.1291,-0.1309,-0.1275,-0.1258,-0.1223,-0.1201,-0.1218,-0.1197,-0.1171,-0.0895,-0.0738,-0.0698,-0.0656,-0.1187,-0.1187,-0.1188,-0.1188,-0.1235,-0.1219,-0.1258,-0.1221,-0.1238,-0.1204,-0.1155,-0.1158,-0.0969,-0.1122,-0.0921,-0.082,-0.0651,-0.0623,-0.119,-0.1189,-0.1189,-0.1189,-0.1189,-0.1188,-0.1186,-0.1194,-0.12,-0.1172,-0.1173,-0.095,-0.0939,-0.0909,-0.0784,-0.0387,-0.0384,-0.0364,-0.0629,-0.0627,-0.0625,-0.0624,-0.0622,-0.0621,-0.1148,-0.1155,-0.1131,-0.1157,-0.1096,-0.0975,-0.0766,-0.0541,-0.0271,-0.0268,-0.0263,-0.0226,-0.0717,-0.0746,-0.0594,-0.0599,-0.0602,-0.0605,-0.0607,-0.1063,-0.1117,-0.1042,-0.098,-0.0798,-0.0546,-0.0355,0.015,0.0411,0.0608,0.0438,0.0074,0.0201,0.0166,0.0165,0.0547,0.0547,0.0547,0.0547,-0.102,-0.1047,-0.0883,-0.0697,-0.0472,-0.0291,0.024,0.057,0.0866,0.0977,0.093,0.0742,0.0693,0.0834,0.0784,0.0789,0.132,0.1321,0.1321,-0.0959,-0.0921,-0.0738,-0.0595,-0.0302,-0.0004,0.0394,0.0716,0.1154,0.1341,0.0951,0.0918,0.0603,0.0523,0.0695,0.0621,0.061,0,0]},{"header":{"parameterUnit":"m.s-1","parameterCategory":2,"la1":30.2992,"la2":30.254,"lo1":-89.0895,"lo2":-89.0443,"dy":0.0025,"dx":0.0025,"nx":19,"ny":19,"refTime":"2026-03-25T03:00:00:Z","depth":"0","parameterNumber":3,"parameterNumberName":"V-component_of_CURRENTS"},"data":[0,0,0,-0.0371,-0.0369,-0.0217,-0.0216,0.0129,0.0132,0,0,0,0,0,0,0,0,0,0,0,-0.0413,-0.0413,-0.0371,-0.0369,-0.0217,-0.0216,0.0129,0.0132,0,0,0,0,0,0,0,0,0,0,0,-0.0413,-0.0413,-0.0413,-0.0369,-0.0218,-0.0216,0.0128,-0.0011,0,0,0,0,0,0,0,0,0,0,-0.0172,-0.0258,-0.0413,-0.0413,-0.0368,-0.0218,-0.0216,-0.0019,-0.0002,0.0087,0,0.0078,0,0.0089,0.0154,0.0155,0,0,0,-0.0315,-0.0272,-0.0238,-0.0413,-0.0368,-0.0218,-0.0271,-0.001,0.0008,0.0109,0.0083,0.0095,0.0095,0.0156,0.0158,0.0201,0.0199,0,0,-0.0324,-0.0363,-0.0252,-0.0228,-0.0366,-0.0276,-0.0267,-0.0,0.0011,0.0084,0.0102,0.0101,0.0158,0.0161,0.0203,0.02,0,0,0,-0.0384,-0.037,-0.0343,-0.024,-0.0238,-0.0273,-0.0262,-0.0,0.0005,0.0105,0.0105,0.016,0.0164,0.0205,0.0202,0.0106,0,0,0,-0.0386,-0.0409,-0.0348,-0.0366,-0.0246,-0.0141,-0.0268,-0.0013,0.0017,0.0103,0.016,0.0167,0.0207,0.0203,0.0113,0.0288,0,0,0,-0.0414,-0.0411,-0.0408,-0.0369,-0.033,-0.0146,-0.0123,-0.0006,0.0015,0.0155,0.0168,0.0208,0.0204,0.0119,0.0291,0.0613,0,0,0,-0.0436,-0.0455,-0.0409,-0.0427,-0.0332,-0.0303,-0.0125,-0.0066,0.003,0.0162,0.0207,0.0202,0.0121,0.0293,0.0609,0.0883,0.0924,0,0,-0.0474,-0.046,-0.0472,-0.0428,-0.0443,-0.0318,-0.0309,-0.0108,-0.0009,0.0146,0.0147,0.011,0.0291,0.0612,0.0614,0.0665,0,0,0,-0.0492,-0.0509,-0.0503,-0.0502,-0.0459,-0.0359,-0.0256,-0.0199,-0.0084,0.0017,0.0042,0.0164,0.037,0.052,0.0556,0.0527,0.0181,0.0181,0.0182,-0.0567,-0.0558,-0.0584,-0.0567,-0.0531,-0.0417,-0.0299,-0.0203,-0.0188,-0.0206,0.0023,0.0141,0.0274,0.0312,0.0264,-0.0161,-0.0161,-0.0162,-0.0162,-0.0665,-0.0682,-0.0647,-0.0679,-0.0573,-0.0534,-0.0314,-0.0262,0.0002,-0.0134,0.0068,0.033,0.035,0.0284,-0.0169,-0.0168,-0.0167,-0.0166,-0.0166,-0.0733,-0.0735,-0.0769,-0.0759,-0.0618,-0.0474,-0.0086,0.0024,0.0082,0.0234,0.0621,0.0625,0.0662,0.0355,0.0357,0.0359,0.036,0.0362,0.0363,-0.0793,-0.0814,-0.0788,-0.0758,-0.0592,-0.0288,0.0147,0.0432,0.0743,0.0733,0.0736,0.0683,0.0309,0.0397,0.0394,0.0388,0.0385,0.0382,0.038,-0.0846,-0.0843,-0.0731,-0.0607,-0.022,0.0198,0.0556,0.1168,0.1452,0.1651,0.1301,0.1053,0.1232,0.12,0.1311,0.155,0.155,0.155,0.1551,-0.0827,-0.0851,-0.0559,-0.0239,0.0139,0.0496,0.1181,0.1631,0.1858,0.1862,0.175,0.1505,0.1459,0.1634,0.1593,0.1703,0.2036,0.2036,0.2036,-0.08,-0.0681,-0.0401,-0.0124,0.034,0.0797,0.1359,0.1855,0.2079,0.2036,0.1655,0.1635,0.1227,0.116,0.1381,0.1326,0.1489,0,0]}],[{"header":{"parameterUnit":"m.s-1","parameterCategory":2,"la1":30.2992,"la2":30.254,"lo1":-89.0895,"lo2":-89.0443,"dy":0.0025,"dx":0.0025,"nx":19,"ny":19,"refTime":"2026-03-25T03:00:00:Z","depth":"2","parameterNumber":2,"parameterNumberName":"U-component_of_CURRENTS"},"data":[0,0,0,-0.1368,-0.1367,-0.1332,-0.1331,-0.1241,-0.1241,0,0,0,0,0,0,0,0,0,0,0,-0.1375,-0.1375,-0.1368,-0.1367,-0.1332,-0.1331,-0.1241,-0.1241,0,0,0,0,0,0,0,0,0,0,0,-0.1375,-0.1375,-0.1375,-0.1367,-0.1332,-0.1331,-0.1242,-0.1276,0,0,0,0,0,0,0,0,0,0,-0.1315,-0.1331,-0.1375,-0.1375,-0.1367,-0.1332,-0.1331,-0.1278,-0.1274,-0.1249,0,-0.125,0,-0.125,-0.1235,-0.1234,0,0,0,-0.1354,-0.1335,-0.1331,-0.1375,-0.1367,-0.1332,-0.1344,-0.1276,-0.1272,-0.1243,-0.1248,-0.1246,-0.1248,-0.1234,-0.1234,-0.1162,-0.1162,0,0,-0.1356,-0.136,-0.1334,-0.1328,-0.1365,-0.1345,-0.1343,-0.1274,-0.1267,-0.1248,-0.1244,-0.1247,-0.1234,-0.1233,-0.1162,-0.1162,0,0,0,-0.1371,-0.1361,-0.1359,-0.1331,-0.1332,-0.1345,-0.1342,-0.127,-0.1271,-0.1243,-0.1246,-0.1233,-0.1232,-0.1163,-0.1162,-0.1197,0,0,0,-0.1371,-0.1371,-0.136,-0.1361,-0.1334,-0.1307,-0.134,-0.1276,-0.1269,-0.1246,-0.1233,-0.1231,-0.1163,-0.1162,-0.1196,-0.122,0,0,0,-0.1376,-0.1371,-0.1371,-0.1361,-0.1353,-0.1308,-0.1305,-0.1274,-0.1271,-0.1234,-0.1231,-0.1163,-0.1162,-0.1196,-0.1218,-0.1188,0,0,0,-0.1375,-0.1347,-0.1371,-0.134,-0.1354,-0.1318,-0.1305,-0.127,-0.1239,-0.1233,-0.1163,-0.1162,-0.1195,-0.1217,-0.1187,-0.1047,-0.1037,0,0,-0.1333,-0.1342,-0.1323,-0.1344,-0.1317,-0.1321,-0.1291,-0.1251,-0.1226,-0.118,-0.1179,-0.1196,-0.1218,-0.1188,-0.1029,-0.102,0,0,0,-0.1305,-0.1299,-0.1291,-0.1288,-0.1277,-0.1287,-0.1256,-0.1243,-0.1212,-0.121,-0.118,-0.1193,-0.1172,-0.1087,-0.1079,-0.1161,-0.1161,-0.1161,-0.1161,-0.1248,-0.1259,-0.124,-0.1256,-0.125,-0.1254,-0.125,-0.123,-0.1203,-0.1199,-0.1209,-0.1195,-0.1104,-0.1096,-0.1189,-0.1189,-0.1189,-0.1189,-0.1189,-0.1202,-0.1196,-0.1229,-0.1215,-0.1247,-0.1237,-0.1245,-0.1243,-0.1224,-0.1218,-0.1195,-0.1113,-0.1089,-0.1192,-0.1191,-0.1191,-0.1191,-0.1191,-0.1191,-0.1173,-0.1174,-0.118,-0.1186,-0.1208,-0.1231,-0.1223,-0.1249,-0.1246,-0.1249,-0.1113,-0.111,-0.1212,-0.1223,-0.1223,-0.1223,-0.1223,-0.1223,-0.1223,-0.114,-0.115,-0.1127,-0.1151,-0.1145,-0.1158,-0.1206,-0.1203,-0.117,-0.1136,-0.1134,-0.1205,-0.1204,-0.1212,-0.1223,-0.1223,-0.1223,-0.1223,-0.1223,-0.1082,-0.1088,-0.1047,-0.103,-0.1019,-0.0974,-0.105,-0.101,-0.1022,-0.0972,-0.1047,-0.1051,-0.1019,-0.1023,-0.1025,-0.0987,-0.0987,-0.0987,-0.0987,-0.1027,-0.1036,-0.0947,-0.0895,-0.0864,-0.0873,-0.0747,-0.071,-0.0763,-0.0756,-0.0766,-0.0728,-0.0742,-0.0693,-0.0705,-0.07,-0.0577,-0.0577,-0.0576,-0.0964,-0.0952,-0.0854,-0.082,-0.078,-0.0735,-0.0572,-0.0398,-0.0409,-0.0563,-0.0727,-0.0953,-0.0924,-0.0936,-0.0883,-0.0893,-0.0894,0,0]},{"header":{"parameterUnit":"m.s-1","parameterCategory":2,"la1":30.2992,"la2":30.254,"lo1":-89.0895,"lo2":-89.0443,"dy":0.0025,"dx":0.0025,"nx":19,"ny":19,"refTime":"2026-03-25T03:00:00:Z","depth":"2","parameterNumber":3,"parameterNumberName":"V-component_of_CURRENTS"},"data":[0,0,0,-0.0595,-0.0593,-0.0489,-0.0489,-0.0425,-0.0425,0,0,0,0,0,0,0,0,0,0,0,-0.0632,-0.0631,-0.0595,-0.0593,-0.0489,-0.0489,-0.0425,-0.0425,0,0,0,0,0,0,0,0,0,0,0,-0.0632,-0.0631,-0.063,-0.0592,-0.049,-0.0489,-0.0425,-0.0485,0,0,0,0,0,0,0,0,0,0,-0.0577,-0.06,-0.0631,-0.063,-0.0592,-0.049,-0.0489,-0.0487,-0.0481,-0.0493,0,-0.0476,0,-0.0452,-0.0422,-0.0422,0,0,0,-0.0588,-0.0605,-0.058,-0.063,-0.0591,-0.049,-0.0535,-0.0483,-0.0477,-0.0485,-0.0474,-0.0471,-0.0451,-0.0422,-0.0422,-0.0322,-0.0321,0,0,-0.0594,-0.0611,-0.0584,-0.0576,-0.0564,-0.0538,-0.0532,-0.0479,-0.0472,-0.0474,-0.0469,-0.0449,-0.0422,-0.0421,-0.0323,-0.0322,0,0,0,-0.0613,-0.0615,-0.0589,-0.0579,-0.0556,-0.0535,-0.0528,-0.0474,-0.0466,-0.0469,-0.0449,-0.0422,-0.0421,-0.0324,-0.0323,-0.0396,0,0,0,-0.0617,-0.0626,-0.0592,-0.06,-0.0557,-0.0504,-0.0525,-0.047,-0.0463,-0.0449,-0.0422,-0.0421,-0.0325,-0.0323,-0.0396,-0.0455,0,0,0,-0.0636,-0.0628,-0.0617,-0.0602,-0.0559,-0.0504,-0.0492,-0.0467,-0.0452,-0.0422,-0.0421,-0.0325,-0.0323,-0.0396,-0.0453,-0.0375,0,0,0,-0.0657,-0.0637,-0.0617,-0.0591,-0.056,-0.05,-0.0492,-0.0442,-0.0414,-0.0421,-0.0325,-0.0323,-0.0396,-0.0452,-0.0375,-0.0428,-0.0431,0,0,-0.0645,-0.0636,-0.0622,-0.0602,-0.0563,-0.0514,-0.0469,-0.043,-0.0386,-0.0349,-0.0346,-0.0396,-0.0453,-0.0375,-0.0314,-0.032,0,0,0,-0.0628,-0.0624,-0.0605,-0.0579,-0.053,-0.0501,-0.0439,-0.041,-0.0358,-0.036,-0.0335,-0.0367,-0.0316,-0.0347,-0.035,-0.0313,-0.0314,-0.0314,-0.0314,-0.0639,-0.0623,-0.0602,-0.0575,-0.0547,-0.0481,-0.0455,-0.0397,-0.0357,-0.0325,-0.0381,-0.0315,-0.0348,-0.0351,-0.0312,-0.0312,-0.0312,-0.0312,-0.0312,-0.0635,-0.0629,-0.0619,-0.06,-0.0575,-0.0549,-0.0488,-0.0454,-0.0387,-0.0373,-0.0317,-0.0367,-0.0361,-0.0317,-0.0316,-0.0316,-0.0315,-0.0315,-0.0314,-0.0658,-0.0651,-0.0644,-0.0636,-0.0641,-0.0607,-0.0602,-0.0551,-0.0452,-0.0436,-0.0363,-0.0363,-0.0371,-0.0362,-0.0362,-0.0362,-0.0362,-0.0362,-0.0362,-0.0675,-0.0666,-0.0678,-0.0675,-0.0693,-0.0701,-0.0666,-0.0618,-0.0509,-0.0443,-0.0442,-0.033,-0.0329,-0.0368,-0.0361,-0.0361,-0.0361,-0.0361,-0.0361,-0.0694,-0.0701,-0.0721,-0.0735,-0.0755,-0.075,-0.0718,-0.0627,-0.0544,-0.0479,-0.0409,-0.0408,-0.0376,-0.0373,-0.041,-0.0413,-0.0413,-0.0413,-0.0413,-0.072,-0.0717,-0.0752,-0.078,-0.0793,-0.0772,-0.0696,-0.0589,-0.0488,-0.0429,-0.0428,-0.0453,-0.0451,-0.0423,-0.0418,-0.0455,-0.047,-0.047,-0.047,-0.0734,-0.0744,-0.0776,-0.0795,-0.0813,-0.0774,-0.0667,-0.049,-0.0399,-0.0468,-0.0394,-0.0425,-0.0461,-0.0458,-0.0412,-0.0405,-0.0465,0,0]}],[{"header":{"parameterUnit":"m.s-1","parameterCategory":2,"la1":30.2992,"la2":30.254,"lo1":-89.0895,"lo2":-89.0443,"dy":0.0025,"dx":0.0025,"nx":19,"ny":19,"refTime":"2026-03-25T03:00:00:Z","depth":"4","parameterNumber":2,"parameterNumberName":"U-component_of_CURRENTS"},"data":[0,0,0,-0.0991,-0.0992,-0.1044,-0.1044,-0.104,-0.104,0,0,0,0,0,0,0,0,0,0,0,-0.0976,-0.0977,-0.0991,-0.0992,-0.1044,-0.1044,-0.104,-0.104,0,0,0,0,0,0,0,0,0,0,0,-0.0976,-0.0977,-0.0978,-0.0993,-0.1044,-0.1044,-0.104,-0.1016,0,0,0,0,0,0,0,0,0,0,-0.0973,-0.0977,-0.0977,-0.0978,-0.0993,-0.1044,-0.1044,-0.1015,-0.1017,-0.0999,0,-0.1022,0,-0.1032,-0.1039,-0.1039,0,0,0,-0.0982,-0.0976,-0.0988,-0.0978,-0.0994,-0.1044,-0.1018,-0.1017,-0.1019,-0.1002,-0.1022,-0.1022,-0.1032,-0.1039,-0.1038,-0.1038,-0.1038,0,0,-0.0979,-0.0982,-0.0987,-0.099,-0.1024,-0.1016,-0.102,-0.1019,-0.1027,-0.1022,-0.1022,-0.1032,-0.1038,-0.1038,-0.1038,-0.1038,0,0,0,-0.0978,-0.098,-0.0994,-0.099,-0.1006,-0.1018,-0.1022,-0.1027,-0.1033,-0.1022,-0.1032,-0.1038,-0.1038,-0.1038,-0.1038,-0.1043,0,0,0,-0.0976,-0.098,-0.0993,-0.0994,-0.1007,-0.1028,-0.103,-0.1033,-0.1033,-0.1032,-0.1038,-0.1038,-0.1038,-0.1038,-0.1043,-0.1031,0,0,0,-0.0971,-0.0979,-0.099,-0.0994,-0.1021,-0.1029,-0.1034,-0.1033,-0.1039,-0.1039,-0.1038,-0.1038,-0.1038,-0.1043,-0.1031,-0.0996,0,0,0,-0.0963,-0.0974,-0.0991,-0.1009,-0.102,-0.1041,-0.1034,-0.1055,-0.106,-0.1038,-0.1038,-0.1038,-0.1043,-0.1031,-0.0996,-0.0864,0,0,0,-0.0964,-0.0975,-0.0984,-0.0999,-0.102,-0.1032,-0.1048,-0.1058,-0.1053,-0.1031,-0.1032,-0.1043,-0.1031,-0.0996,-0.0881,0,0,0,0,-0.0975,-0.0982,-0.0993,-0.1015,-0.1034,-0.1046,-0.1064,-0.1066,-0.1063,-0.1059,-0.1047,-0.1039,-0.1016,-0.0941,-0.1039,-0.1039,-0.1039,-0.1039,-0.1039,-0.0962,-0.0977,-0.0991,-0.1014,-0.1031,-0.1059,-0.1062,-0.1063,-0.1069,-0.1074,-0.1047,-0.1027,-0.0951,-0.1058,-0.1058,-0.1058,-0.1058,-0.1058,-0.1058,-0.095,-0.0953,-0.0983,-0.0999,-0.1023,-0.1036,-0.1049,-0.1059,-0.104,-0.1057,-0.1035,-0.0958,-0.1059,-0.1058,-0.1058,-0.1058,-0.1058,-0.1058,-0.1058,-0.0926,-0.0928,-0.0949,-0.097,-0.0989,-0.1015,-0.0992,-0.1018,-0.1025,-0.1015,-0.0912,-0.1015,-0.1008,-0.1001,-0.1001,-0.1001,-0.1001,-0.1001,-0.1,-0.0886,-0.0907,-0.0905,-0.0937,-0.0937,-0.0943,-0.0957,-0.0933,-0.0954,-0.0888,-0.1007,-0.1007,-0.1009,-0.1004,-0.0997,-0.0998,-0.0998,-0.0999,-0.0999,-0.0839,-0.0851,-0.0837,-0.0837,-0.0834,-0.083,-0.0871,-0.0803,-0.0764,-0.0716,-0.0808,-0.0819,-0.0793,-0.08,-0.0786,-0.0716,-0.0714,-0.0712,0,-0.079,-0.0803,-0.0755,-0.0725,-0.0694,-0.0744,-0.0653,-0.0647,-0.0658,-0.0639,-0.0772,-0.088,-0.0885,-0.0863,-0.0866,-0.0852,0,0,0,-0.074,-0.0736,-0.0672,-0.0657,-0.0613,-0.0586,-0.062,-0.0573,-0.0676,-0.0587,-0.0667,-0.0679,-0.0875,-0.0989,-0.0974,-0.0976,-0.0966,0,0]},{"header":{"parameterUnit":"m.s-1","parameterCategory":2,"la1":30.2992,"la2":30.254,"lo1":-89.0895,"lo2":-89.0443,"dy":0.0025,"dx":0.0025,"nx":19,"ny":19,"refTime":"2026-03-25T03:00:00:Z","depth":"4","parameterNumber":3,"parameterNumberName":"V-component_of_CURRENTS"},"data":[0,0,0,-0.0508,-0.0507,-0.0453,-0.0453,-0.0394,-0.0394,0,0,0,0,0,0,0,0,0,0,0,-0.0528,-0.0528,-0.0508,-0.0507,-0.0453,-0.0453,-0.0394,-0.0394,0,0,0,0,0,0,0,0,0,0,0,-0.0528,-0.0528,-0.0528,-0.0506,-0.0453,-0.0453,-0.0394,-0.0431,0,0,0,0,0,0,0,0,0,0,-0.0481,-0.0501,-0.0528,-0.0528,-0.0506,-0.0453,-0.0453,-0.0433,-0.0429,-0.0423,0,-0.0419,0,-0.0407,-0.0391,-0.0391,0,0,0,-0.0501,-0.0505,-0.049,-0.0528,-0.0506,-0.0453,-0.0476,-0.043,-0.0426,-0.0418,-0.0418,-0.0416,-0.0406,-0.039,-0.039,-0.0278,-0.0277,0,0,-0.0504,-0.0516,-0.0494,-0.0488,-0.0497,-0.0477,-0.0474,-0.0428,-0.0426,-0.0418,-0.0414,-0.0405,-0.039,-0.039,-0.0279,-0.0277,0,0,0,-0.0516,-0.0519,-0.0505,-0.0491,-0.0481,-0.0476,-0.0472,-0.0427,-0.0423,-0.0414,-0.0404,-0.039,-0.0389,-0.028,-0.0278,-0.0286,0,0,0,-0.0518,-0.0526,-0.0507,-0.0513,-0.0482,-0.0452,-0.0473,-0.0426,-0.0421,-0.0404,-0.039,-0.0389,-0.028,-0.0279,-0.0288,-0.0348,0,0,0,-0.053,-0.0527,-0.0523,-0.0514,-0.0493,-0.0453,-0.0445,-0.0425,-0.0415,-0.0391,-0.0389,-0.0281,-0.0279,-0.029,-0.0348,-0.0402,0,0,0,-0.0541,-0.0524,-0.0523,-0.0498,-0.0494,-0.0435,-0.0445,-0.0404,-0.038,-0.039,-0.028,-0.0278,-0.029,-0.0349,-0.0401,-0.0388,0,0,0,-0.0522,-0.0522,-0.0505,-0.0503,-0.0449,-0.0442,-0.0377,-0.0358,-0.0344,-0.0298,-0.0295,-0.0288,-0.0348,-0.0402,-0.0262,0,0,0,0,-0.05,-0.0488,-0.0471,-0.0443,-0.0407,-0.038,-0.0339,-0.0321,-0.0277,-0.0321,-0.0242,-0.0281,-0.0315,-0.03,-0.0268,-0.0268,-0.0269,-0.0269,-0.0269,-0.0487,-0.0464,-0.0429,-0.0394,-0.0366,-0.0321,-0.0304,-0.0268,-0.0239,-0.0209,-0.0251,-0.0255,-0.0229,-0.0179,-0.0179,-0.0179,-0.0179,-0.0179,-0.0179,-0.0445,-0.0425,-0.0406,-0.037,-0.0349,-0.0309,-0.0271,-0.0255,-0.0247,-0.0206,-0.0237,-0.0262,-0.0179,-0.0179,-0.0179,-0.0179,-0.0179,-0.0179,-0.0179,-0.0431,-0.0421,-0.0405,-0.0381,-0.0373,-0.0344,-0.0369,-0.034,-0.0295,-0.0312,-0.0321,-0.0288,-0.0333,-0.0327,-0.0327,-0.0328,-0.0328,-0.0328,-0.0329,-0.0431,-0.0411,-0.0428,-0.0412,-0.0433,-0.0454,-0.0453,-0.0455,-0.0421,-0.0368,-0.0341,-0.0306,-0.0301,-0.0342,-0.0336,-0.0334,-0.0333,-0.0333,-0.0332,-0.0421,-0.0447,-0.0469,-0.0497,-0.0536,-0.0543,-0.0552,-0.0524,-0.0539,-0.0516,-0.0395,-0.039,-0.0412,-0.0406,-0.0451,-0.0478,-0.0478,-0.0478,0,-0.0452,-0.0451,-0.052,-0.0575,-0.0607,-0.0599,-0.0585,-0.0574,-0.053,-0.0504,-0.0551,-0.0417,-0.0411,-0.0436,-0.043,-0.0483,0,0,0,-0.0476,-0.0494,-0.0554,-0.0597,-0.0634,-0.0593,-0.0575,-0.0556,-0.0518,-0.0524,-0.0476,-0.0476,-0.0422,-0.0356,-0.038,-0.0374,-0.0442,0,0]}]]